Weather in Gar"ya

Russia / Komi Republic     61°22′19″N   50°36′00″E
temp.,
°C
wind,
m/s
gust,
m/s
humid.,
%
clouds,
%
prec.,
mm/h
press.,
hPa
HPBL,
m
4 march, thu
thu400:00−8wsw2796100 0.2 993275
03:00−10wsw2596100 0.3 993181
06:00−13wsw2298100 0.1 99166
09:00−10ssw129495 0.1 991132
12:00−6se118797 0.0 989389
15:00−6ne128599 0.1 990563
18:00−8nne2395100 0.1 99073
21:00−11n2296100 0.1 99233
5 march, fri
fri500:00−13nnw259798 0.1 993125
03:00−15nnw369698 0.3 995237
06:00−16nw2697100 0.3 997258
09:00−15nw2593100 0.5 998409
12:00−13wnw2488100 0.1 999586
15:00−13wnw3488100 0.3 1001700
18:00−15w2597100 0.1 1003191
21:00−16wnw2696100 0.2 1004246
6 march, sat
sat600:00−18wnw2598100 0.1 1005108
03:00−19wnw249998 0.1 100799
06:00−20wnw249883 0.1 1007123
09:00−18wnw249483 0.1 1008297
12:00−15wnw248798 0.1 1008620
15:00−15w348699 0.1 1008858
18:00−19wnw2296100 0.1 100820
21:00−22wsw129893 0.1 100820
7 march, sun
sun700:00−22sw129878 0.0 100720
03:00−21s229983 0.1 100772
06:00−21s249990 0.1 1006130
09:00−17s359592 0.1 1005261
12:00−12sse368880 0.0 1004482
15:00−11sse478582 0.0 1003747
18:00−13se4119199 0.0 1002578
21:00−14se41193100 0.1 1001530
8 march, mon
mon800:00−15ese3895100 0.3 1000414
03:00−15ese4995100 0.5 999446
06:00−16e4895100 0.5 999481
09:00−15e4893100 0.9 999541
12:00−13ene4791100 0.4 999727
15:00−12ene4891100 0.8 1000860
18:00−13ne4994100 0.4 1002691
21:00−15nne41093100 0.6 1004527